Flag for India Weather past 2 weeks in Kãnpur, Uttar Pradesh, India

Now
82 °F

Broken clouds.


Feels Like: 92 °F
Forecast: 74 / 94 °F
Wind: 2 mph from North

Location: Lucknow / Amausi

Current Time: Sep 15, 2014 at 8:22:31 AM

Latest Report: Sep 15, 2014 at 7:30 AM


Visibility: 2 mi

Pressure: 29.68 "Hg

Humidity: 89%

Dew point: 79 °F

Location of KãnpurLocation

Historic Weather in Kãnpur — Graph

°F

Kãnpur temperature yesterday

Maximum temperature yesterday: 95 °F (at 2:30 PM)
Minimum temperature yesterday: 77 °F (at 3:00 AM)
Average temperature yesterday: 84 °F

Past Weeks' High & Low Weather Summary

 TemperatureHumidityPressure
High104 °F (Sep 5, 3:00 PM)100% (Sep 1, 8:00 PM)29.74 "Hg (Sep 1, 8:00 PM)
Low75 °F (Sep 12, 10:30 AM)48% (Sep 5, 3:00 PM)29.47 "Hg (Aug 31, 5:00 PM)
Average85 °F83%29.61 "Hg
* Reported Aug 31 6:30 AM — Sep 15 6:30 AM, Kãnpur, Weather by CustomWeather, © 2014

Note: Actual official high and low records may vary slightly from our data, if they occured in-between our weather recording intervals... More about our weather records

Advertising

Kãnpur weather history for previous 24 hours

 ConditionsComfort  
Time TempWeatherWind HumidityBarometerVisibility
6:30 AM
Sep 15
79 °FBroken clouds.No wind94%29.65 "Hg2 mi
5:30 AM77 °FPartly cloudy.No wind94%29.65 "Hg2 mi
5:00 AM77 °FPartly cloudy.No wind94%29.65 "Hg2 mi
4:00 AM77 °FPassing clouds.No wind94%29.65 "Hg2 mi
3:00 AM77 °FPassing clouds.No wind94%29.62 "Hg2 mi
2:00 AM77 °FPassing clouds.No wind94%29.65 "Hg2 mi
1:00 AM77 °FHaze.No wind94%29.68 "Hg2 mi
12:00 AM79 °FPassing clouds.2 mph94%29.68 "Hg2 mi
11:30 PM
Sep 14
79 °FPassing clouds.2 mph94%29.68 "Hg2 mi
11:00 PM79 °FPassing clouds.2 mph94%29.68 "Hg2 mi
10:00 PM79 °FPassing clouds.2 mph94%29.71 "Hg2 mi
8:30 PM81 °FPassing clouds.3 mph89%29.68 "Hg3 mi
8:00 PM81 °FPassing clouds.3 mph89%29.65 "Hg3 mi
7:30 PM81 °FPassing clouds.3 mph89%29.62 "Hg3 mi
7:00 PM82 °FPassing clouds.3 mph84%29.62 "Hg3 mi
6:30 PM82 °FScattered clouds.3 mph89%29.62 "Hg3 mi
5:30 PM86 °FBroken clouds.5 mph79%29.59 "Hg4 mi
5:00 PM88 °FBroken clouds.6 mph75%29.62 "Hg4 mi
4:30 PM90 °FBroken clouds.7 mph71%29.62 "Hg4 mi
4:00 PM90 °FScattered clouds.9 mph71%29.62 "Hg4 mi
3:30 PM90 °FScattered clouds.10 mph71%29.59 "Hg4 mi
3:00 PM93 °FScattered clouds.10 mph63%29.62 "Hg4 mi
2:30 PM95 °FScattered clouds.5 mph60%29.62 "Hg3 mi
2:00 PM93 °FScattered clouds.5 mph63%29.65 "Hg3 mi
1:00 PM93 °FBroken clouds.3 mph63%29.65 "Hg3 mi
12:30 PM93 °FBroken clouds.5 mph63%29.68 "Hg3 mi
12:00 PM91 °FBroken clouds.5 mph67%29.68 "Hg3 mi
11:30 AM91 °FBroken clouds.3 mph67%29.71 "Hg3 mi
11:00 AM90 °FBroken clouds.2 mph71%29.71 "Hg3 mi
10:30 AM90 °FBroken clouds.2 mph75%29.71 "Hg3 mi
10:00 AM90 °FBroken clouds.2 mph71%29.71 "Hg3 mi
9:30 AM88 °FScattered clouds.2 mph75%29.71 "Hg3 mi
9:00 AM86 °FScattered clouds.3 mph79%29.71 "Hg3 mi
8:30 AM82 °FBroken clouds.3 mph89%29.71 "Hg2 mi
8:00 AM81 °FBroken clouds.3 mph94%29.71 "Hg2 mi
Weather by CustomWeather, © 2014

See weather overviewHow to use our weather pages